User: anonymous   Login
Location: Unspecified
(0.0000°N, 0.0000°E)
Time: 19:26:10
(UTC+00:00)
Language:

Courier 1B Rocket - Orbit

View from above orbital plane
View from above orbital plane
View from above satellite
View from above satellite

Ground track
Ground track

The orbit data is extracted from the following two-line orbital elements,

1 00059U 60013B   14355.20529557  .00000146  00000-0  80399-4 0    60
2 00059 028.2493 078.2809 0189448 016.2708 344.3821 13.52909267675340
Epoch (UTC): 21 December 2014 04:55:37
Eccentricity: 0.0189448
inclination: 28.2493°
perigee height: 920 km
apogee height: 1202 km
right ascension of ascending node: 78.2809°
argument of perigee: 16.2708°
revolutions per day: 13.52909267
mean anomaly at epoch: 344.3821°
orbit number at epoch: 67534

The dashed part of the orbit path shows where the satellite is in the earth's shadow,  

DLR